Location: Caltech
(34.1382°N, 118.1253°W)
Time: 07:51:36
(UTC-07:00)

Iridium 91 - Visible Passes

Search period start: 28 May 2017 00:00
Search period end: 07 June 2017 00:00
Orbit: 776 x 779 km, 86.4° (Epoch: 27 May)

Date Brightness Start Highest point End Pass type
(mag) Time Alt. Az. Time Alt. Az. Time Alt. Az.
28 May 8.1 03:01:01 10° ESE 03:03:53 15° E 03:06:46 10° NE visible
28 May 5.8 04:39:16 11° SSW 04:44:06 49° W 04:49:09 10° N visible
29 May 5.5 04:06:13 15° S 04:10:33 84° E 04:15:47 10° N visible
30 May 6.6 03:33:10 15° SSE 03:37:08 43° E 03:42:01 10° NNE visible
31 May 7.6 03:00:04 11° SE 03:03:49 22° E 03:07:47 10° NNE visible
31 May 6.3 04:40:34 15° SW 04:44:16 33° W 04:48:57 10° NNW visible
01 Jun 8.2 02:29:07 10° E 02:30:37 11° ENE 02:32:08 10° ENE visible
01 Jun 5.5 04:07:28 23° SSW 04:10:39 65° W 04:15:51 10° N visible
02 Jun 5.8 03:34:19 27° SSE 03:37:10 65° E 03:42:20 10° N visible
03 Jun 6.9 03:01:10 21° SE 03:03:47 33° E 03:08:24 10° NNE visible
03 Jun 6.8 04:41:40 15° WSW 04:44:29 22° W 04:48:32 10° NNW visible
04 Jun 7.8 02:28:00 13° ESE 02:30:31 17° E 02:33:50 10° NE visible
04 Jun 6.0 04:08:29 27° SW 04:10:48 43° W 04:15:46 10° NNW visible
05 Jun 5.4 03:35:18 40° S 03:37:14 84° W 03:42:29 10° N visible
06 Jun 6.2 03:02:06 36° SE 03:03:47 49° E 03:08:48 10° NNE visible
06 Jun 7.3 04:42:35 12° WSW 04:44:46 15° WNW 04:47:43 10° NW visible
